OBJECT A, 66053

Orbit data source: Space-Track

You're viewing an Uncataloged Satellite

Recently launched and/or uncataloged satellites may have evolving metadata. Metadata may include but not limited to: Owner, Maufacturer, Bus, Motor, and Mission.

OBJECT A, 66053 is a satellite in SSO that was launched on Sun, 19 Oct 2025 UTC via a LIJIAN-1 launch vehicle from the Jiuquan Satellite Launch Center, China (JSC). Unknown objects in Earth's orbit typically refer to objects detected orbiting the Earth but have not yet been identified or cataloged. These objects could be anything from previously untracked satellites, spent rocket stages, debris from satellite collisions, or even natural meteoroids temporarily captured by Earth's gravity.

Loading next visibility...
Identifier
66053, 2025-234A
Orbit
SSO
Country
Flag of TBDTBD
Related business
Manufacturer
SECM
Mission
Operational spacecraft
Bus & Motor
PRSS, Unknown motor
Mass
~400 kg wet, ~400 kg dry
Launch date (UTC)
2025-10-19 (3 days ago)
Launch vehicle
LIJIAN-1
Launch site
Jiuquan Satellite Launch Center, China (JSC)
Object type
Unknown
Shape & HBR
Unknown
Radar Cross Section
RCS unknown

Expand to show TLE details & history
Last TLE update: 7 hours ago

TLE from 7 hours ago
0 OBJECT A
1 66053U 25234A   25294.82214382  .00032480  00000-0  14388-2 0  9991
2 66053  97.4637   0.4742 0014239 278.4357  81.5265 15.21473472   418
Epoch: 2025-10-21T19:43Z
TLE epoch observation values (Epoch: 2025-10-21T19:43:53.226Z)
Latitude
0.00004°
Longitude
33.99783°
Altitude
503.056 km
Speed
7.614 km/s
True Right ascension
00h 01m 53s
True Declination
0° 00' 00"
Sunlit
Object was in full shadow at epoch
Visualization orbit readout
Latitude
Unknown
Longitude
Unknown
Altitude
Unknown
Speed
Unknown
Apparent Right ascension
Unknown
Apparent Declination
Unknown
Sunlit
N/A
Visualization observer readout
Local Sidereal Time
21:49:42
Azimuth
Unknown
Elevation
Unknown
Doppler factor
Unknown
Orbital elements
Apogee altitude
508.153 km
Perigee altitude
488.57 km
Semi-major axis
6,876.499 km
Eccentricity
0.00142
Inclination
97.4637°
RAAN
0.4742°
Arg. of periapsis
278.4357°
True anomaly
81.68793°
Mean anomaly
81.5265°
Eccentric anomaly
81.60721°
Mean motion
3.8062 °/min
Orbital period
94.58 mins
BSTAR
0.0014388
Loading maneuver chart data...
Computing Atmospheric mass density...
Loading historical data...
Loading historical data...
Loading historical data...
Loading historical data...
Loading historical data...
Loading historical data...
Loading historical data...
Other satellites on launch #234 in the year 2025 (2025-10-19 UTC)

Documentation

Showing up to 5 results
|